STARLINK-35582

Last updated on Fri Dec 19 2025 00:02:05 GMT+0000 (Coordinated Universal Time)

1 66537U 25265X 25352.66667824 -.02078346 00000+0 -48325-1 0 9993 2 66537 43.0004 19.2918 0001008 291.3258 237.8584 15.45107224 5945
UTC large
Height (km)
Speed (km/s)
/
Latitude / Longitude
Inclination (degrees)
Orbital Period (minutes)
Azimuth
Elevation
Range (km)
Doppler Factor

Next 0 passes for location: London (51.5072 / 0.1276)

Sorry there are no passes over London.